Flag for U.S.A. Weather past 2 weeks in Sacramento, California, U.S.A.

Now
57 °F

Light rain. Mostly cloudy.


Feels Like: 55 °F
Forecast: 53 / 67 °F
Wind: 12 mph from Southwest

Location: Sacramento Executive Airport

Current Time: Apr 25, 2015 at 4:35:37 AM

Latest Report: Apr 25, 2015 at 4:01 AM


Visibility: 8 mi

Pressure: 29.84 "Hg

Humidity: 88%

Dew point: 54 °F

Location of SacramentoLocation

Historic Weather in Sacramento — Graph

°F

Sacramento temperature yesterday

Maximum temperature yesterday: 72 °F (at 1:53 PM)
Minimum temperature yesterday: 53 °F (at 4:53 AM)
Average temperature yesterday: 60 °F

Past Weeks' High & Low Weather Summary

 TemperatureHumidityPressure
High85 °F (Apr 18, 3:53 PM)93% (Apr 10, 6:53 AM)30.34 "Hg (Apr 10, 6:53 AM)
Low42 °F (Apr 14, 6:53 AM)11% (Apr 14, 4:53 PM)29.74 "Hg (Apr 23, 5:53 PM)
Average62 °F54%29.95 "Hg
* Reported Apr 10 2:53 AM — Apr 25 2:53 AM, Sacramento, Weather by CustomWeather, © 2015

Note: Actual official high and low records may vary slightly from our data, if they occured in-between our weather recording intervals... More about our weather records

Advertising

Sacramento weather history for previous 24 hours

 ConditionsComfort  
Time TempWeatherWind HumidityBarometerVisibility
2:53 AM
Sat, Apr 25
55 °FRain. Fog.6 mph93%29.84 "Hg6 mi
1:53 AM53 °FRain. Fog.6 mph93%29.87 "Hg6 mi
12:53 AM53 °FHeavy rain. Fog.10 mph89%29.90 "Hg4 mi
11:53 PM
Fri, Apr 24
53 °FRain. Overcast.5 mph89%29.92 "Hg7 mi
10:53 PM53 °FRain. Overcast.5 mph86%29.94 "Hg7 mi
9:53 PM55 °FOvercast.10 mph67%29.96 "Hg10 mi
8:53 PM55 °FOvercast.10 mph67%29.95 "Hg10 mi
7:53 PM55 °FLight rain. Overcast.13 mph67%29.95 "Hg10 mi
6:53 PM61 °FLight rain. Overcast.10 mph42%29.92 "Hg10 mi
5:53 PM65 °FBroken clouds.18 mph37%29.91 "Hg10 mi
4:53 PM68 °FSunny.15 mph38%29.91 "Hg10 mi
3:53 PM69 °FSunny.15 mph35%29.90 "Hg10 mi
2:53 PM71 °FSunny.15 mph31%29.91 "Hg10 mi
1:53 PM72 °FSunny.16 mph29%29.92 "Hg10 mi
12:53 PM70 °FSunny.10 mph38%29.93 "Hg10 mi
11:53 AM69 °FPassing clouds.7 mph41%29.93 "Hg10 mi
10:53 AM66 °FPassing clouds.5 mph47%29.93 "Hg10 mi
9:53 AM63 °FSunny.7 mph56%29.93 "Hg10 mi
8:53 AM59 °FPassing clouds.3 mph67%29.91 "Hg10 mi
7:53 AM54 °FPassing clouds.5 mph74%29.89 "Hg10 mi
6:53 AM54 °FPassing clouds.7 mph74%29.87 "Hg10 mi
5:53 AM54 °FOvercast.8 mph74%29.83 "Hg10 mi
4:53 AM53 °FClear.8 mph77%29.82 "Hg10 mi
Weather by CustomWeather, © 2015

See weather overviewHow to use our weather pages